Regional Weather Roundup
Issued by NWS Northern Indiana

Home | Current Version | Previous Version | Graphics & Text | Print | Product List | Glossary On
Versions: 1 2 3 4 5 6 7 8 9 10 11 12 13 14 15 16 17 18 19 20 21 22 23 24 25 26 27 28 29 30 31 32 33 34 35 36 37 38 39 40 41 42 43 44 45 46 47 48 49 50
000
ASUS43 KIWX 221700
RWRIWX

KIWX WEATHER ROUNDUP
NATIONAL WEATHER SERVICE NORTHERN INDIANA
1200 PM EST MON DEC 22 2014

NOTE: "FAIR" INDICATES FEW OR NO CLOUDS BELOW 12,000 FEET WITH NO
SIGNIFICANT WEATHER AND/OR OBSTRUCTIONS TO VISIBILITY.

* THESE STATIONS ARE NOT UNDER NWS QUALITY CONTROL. THEY ALSO MAY NOT
  REPORT WEATHER SUCH AS PRECIPITATION OR FOG.

INZ001>027-221800-
NORTHERN INDIANA

CITY           SKY/WX    TMP DP  RH WIND       PRES   REMARKS
KNOX*          CLOUDY    34  26  74 SE10      29.90F WCI  26
SOUTH BEND     NOT AVBL
ELKHART*       CLOUDY    32  25  74 SE9       29.94F HAZE    WCI  24
GOSHEN         CLOUDY    33  27  78 SE10      29.94F HAZE    WCI  25
ANGOLA*        PTSUNNY   32  27  80 SE8       29.95F WCI  25
FORT WAYNE     CLOUDY    33  29  85 E8        29.96F FOG     WCI  26

$$
INZ028>050-221800-
CENTRAL INDIANA

CITY           SKY/WX    TMP DP  RH WIND       PRES   REMARKS
LAFAYETTE      LGT RAIN  37  33  85 E9        29.87F
KOKOMO*        CLOUDY    36  30  80 SE7       29.90F
MUNCIE*        CLOUDY    38  32  79 SE7       29.93F
INDIANAPOLIS   CLOUDY    37  32  82 SE12      29.88F

$$
MIZ043>046-050>051-056>058-064>065-071>073-077>080-221800-
SOUTHWEST LOWER MICHIGAN

CITY           SKY/WX    TMP DP  RH WIND       PRES   REMARKS
BATTLE CREEK   CLOUDY    35  26  69 E7        29.95F WCI  29
BENTON HARBOR  CLOUDY    32  27  81 E12       29.91F HAZE    WCI  23
COLDWATER*     CLOUDY    34  28  77 MISG      29.95F
HILLSDALE*     CLOUDY    34  29  81 SE9       29.95F WCI  27
HOLLAND        CLOUDY    36  27  69 E14       29.94F
GRAND RAPIDS   PTSUNNY   35  27  72 E16       29.95F WCI  25
KALAMAZOO      CLOUDY    35  27  72 SE8       29.95F WCI  29
STURGIS*       CLOUDY    34  28  80 E12       29.92F WCI  25
THREE RIVERS*  CLOUDY    32  27  81 E9        29.93F HAZE    WCI  25

$$
OHZ001>008-015>018-024>025-221800-
NORTHWEST OHIO

CITY           SKY/WX    TMP DP  RH WIND       PRES   REMARKS
DEFIANCE       CLOUDY    34  28  79 E6        30.00S HAZE    WCI  29
FINDLAY        PTSUNNY   36  29  75 SE10      29.99F
TOLEDO EXPRESS PTSUNNY   36  27  69 E8        30.00F
TOLEDO METCALF MOSUNNY   37  28  70 E8        30.02F HAZE
LIMA           CLOUDY    41  31  67 SE8       29.97F

$$
AND FOR LAKE MICHIGAN COASTAL AND OPEN LAKE BUOY OBSERVATIONS

STATION/POSITION TEMP    WIND        PRES    VSBY  WAVE
                 AIR SEA DIR/SP/G                  HT/PER
                 (F)     (DEG/KT/KT) (MB)    (MI)  (FT/S)
CALUMET HARBOR    35     130/  4/  7 1010.9F
SAINT JOSEPH      33      90/  2/  8 1012.9F
MICHIGAN CITY CG     37                N/A       6   1

$$
&&


USA.gov is the U.S. government's official web portal to all federal, state and local government web resources and services.